Theta_e
310 310 310 310 310 310 310 309 308 308 307 308 308 310 312 313 313 315 315 316 317 317 315 317 317 316 317 318 318 318 314 315 318 320 319 315 315 314 312 313 314 313 313 311 311
310 310 310 310 310 310 310 310 309 308 308 307 307 308 312 313 313 316 316 316 316 314 315 316 316 315 315 318 317 317 317 319 318 317 317 315 314 312 314 313 312 313 308 310 309
310 310 310 310 310 310 310 309 309 308 308 307 307 307 311 313 320 318 318 316 314 314 316 316 316 316 317 317 317 316 315 317 317 317 314 315 314 313 312 312 310 311 309 306 305
312 311 311 310 310 310 310 310 309 308 307 307 307 307 311 315 308 317 315 314 313 314 314 315 315 317 317 318 318 319 316 317 317 316 315 315 313 314 311 313 312 309 309 306 304
313 313 312 311 311 310 310 310 310 309 308 307 306 307 312 318 315 316 313 313 313 314 315 314 315 316 318 318 318 318 317 316 315 314 314 314 313 312 311 310 309 309 309 306 305
311 312 311 310 311 311 311 311 310 310 309 307 306 308 313 314 313 314 313 312 313 313 314 314 314 314 315 316 316 315 316 314 313 314 313 314 313 313 312 311 310 310 309 305 306
314 314 314 311 306 307 310 311 311 310 309 307 306 311 318 311 313 313 313 311 313 313 313 314 314 314 315 317 315 314 315 312 313 313 314 313 313 313 313 311 311 310 309 307 306
315 314 314 313 308 306 305 305 308 309 308 307 309 314 310 314 313 312 311 312 312 311 312 313 313 313 315 314 313 314 314 314 313 313 314 313 315 312 311 309 310 310 307 307 306
315 315 314 313 312 310 307 306 305 306 307 308 312 318 312 313 312 313 312 311 310 311 311 311 313 313 314 312 311 312 312 313 314 313 312 312 314 312 310 309 310 307 307 308 309
316 315 315 314 313 311 308 307 306 308 314 314 317 315 312 313 314 312 311 312 311 310 311 312 311 310 312 310 311 311 313 313 313 313 313 312 313 312 310 310 308 307 306 306 308
316 316 315 315 314 312 311 309 308 311 317 309 311 310 313 312 313 310 310 311 312 312 311 311 310 311 311 312 311 311 311 311 313 313 314 314 313 313 312 310 309 309 310 311 310
317 316 316 315 315 314 313 311 311 310 307 308 307 311 313 313 313 312 310 310 311 311 311 313 312 311 311 311 312 312 312 311 312 310 311 311 313 312 310 312 312 311 311 311 311
318 317 316 317 315 315 313 310 309 311 311 309 307 307 309 312 312 312 308 309 310 311 311 312 313 313 313 313 313 312 312 312 312 311 310 310 311 312 311 311 311 312 311 311 311
319 318 317 318 315 315 312 311 308 309 306 309 309 311 309 310 308 306 308 310 310 312 311 311 312 311 311 312 312 313 311 311 312 312 313 311 314 311 311 311 310 311 310 309 304
321 320 318 316 316 314 314 312 308 309 310 311 309 309 308 307 307 306 304 307 309 310 310 311 312 310 312 312 310 312 312 312 313 313 312 314 313 314 310 310 310 310 309 309 305
324 321 319 316 314 317 314 308 310 305 308 310 308 309 309 309 308 306 306 305 306 308 307 308 308 311 311 309 310 310 311 311 310 308 313 311 311 311 309 310 310 310 308 309 308
324 322 320 318 315 313 309 312 312 308 308 312 310 310 310 311 310 306 306 305 306 308 307 308 308 308 309 311 308 310 310 311 311 312 314 309 310 312 311 310 309 310 309 308 304
321 322 320 320 316 314 311 315 320 320 313 312 310 310 310 310 311 308 308 307 304 307 309 309 310 308 307 310 309 308 310 312 310 312 313 308 311 311 309 309 307 307 308 307 304
318 319 317 319 315 314 314 317 325 320 321 322 323 323 312 310 309 309 307 307 307 307 309 308 310 308 306 308 309 309 311 310 312 297 308 312 310 308 309 308 307 307 306 305 304
316 317 316 318 316 311 313 323 320 318 320 321 325 324 324 321 311 311 310 308 309 307 309 310 310 309 306 306 307 308 307 311 310 309 308 312 309 311 310 311 310 307 305 304 304
313 318 316 316 312 312 316 316 317 316 317 320 322 324 323 323 322 319 315 312 309 309 308 308 310 311 305 306 308 306 308 308 309 310 313 313 312 308 310 309 309 306 305 304 304
314 317 313 312 315 313 318 314 314 316 314 317 315 318 319 319 321 322 322 317 312 310 313 310 311 312 310 305 305 307 309 309 311 311 308 312 313 312 308 309 306 309 309 307 306
310 312 310 312 318 317 312 314 314 316 315 316 318 318 318 319 320 318 318 315 316 314 314 312 313 317 315 312 305 307 306 308 308 309 312 314 314 312 311 311 309 305 303 304 304
305 311 310 309 312 316 317 316 316 313 314 314 316 316 318 319 318 320 319 317 315 315 313 314 312 316 318 315 312 312 310 308 310 312 313 313 313 311 310 310 309 309 309 308 306
301 304 307 309 311 313 313 314 315 316 314 314 316 316 317 318 318 318 317 316 315 313 312 314 314 314 314 314 314 314 314 313 313 312 313 313 311 309 309 309 309 309 308 308 304
299 302 302 303 305 309 312 312 312 312 312 312 313 312 314 315 316 317 315 316 316 312 313 313 317 316 316 314 313 315 314 314 314 314 313 312 311 310 311 311 310 310 310 309 308
298 299 300 299 299 302 305 306 307 307 307 308 306 305 306 308 307 305 305 307 310 313 315 315 313 317 319 316 315 316 315 315 314 312 312 313 311 310 310 310 311 311 310 309 308
Wind_Speed
13 13 12 12 13 13 13 13 14 14 14 14 14 12 9 8 9 8 6 6 6 6 4 5 4 4 3 2 1 3 3 3 5 3 1 2 3 2 3 2 3 5 4 3 19
11 13 13 13 12 12 13 13 13 13 14 14 15 14 9 7 7 11 10 8 8 6 9 8 3 6 1 3 2 4 3 6 4 3 3 3 5 7 2 3 4 4 1 13 32
12 12 13 13 14 14 14 14 14 14 14 14 15 13 9 7 2 5 5 15 9 8 7 5 3 5 3 3 4 4 6 5 4 3 2 3 2 4 7 7 8 11 9 13 18
14 15 15 15 14 14 14 14 15 15 15 15 15 13 7 2 4 3 3 10 10 9 6 5 2 4 3 5 6 4 8 7 7 3 1 3 4 5 8 14 7 12 8 13 12
16 17 18 17 17 15 15 15 15 16 15 15 15 12 3 0 8 6 5 10 10 10 8 5 4 4 4 3 2 5 5 7 7 8 6 2 9 7 11 11 11 10 7 17 15
18 20 23 22 20 19 18 18 16 16 17 16 15 9 2 5 6 6 8 11 10 11 7 7 5 6 5 5 3 3 5 7 7 11 6 7 5 5 9 8 14 12 13 12 19
20 20 25 23 22 22 22 21 20 19 19 18 13 5 3 12 7 7 9 10 11 9 4 7 3 3 1 4 3 3 8 9 13 9 7 6 9 14 25 5 9 12 12 12 16
18 20 24 22 19 19 21 22 22 21 20 17 6 6 7 7 9 10 11 9 10 9 6 4 5 3 3 2 6 2 2 5 6 8 4 9 15 11 12 8 16 18 12 10 13
17 18 22 22 21 21 22 21 19 18 16 8 5 5 8 4 6 12 12 6 8 5 4 4 5 5 1 4 5 3 6 8 11 8 6 6 11 10 9 9 15 11 11 14 15
16 17 19 22 23 25 21 16 13 7 1 3 2 2 4 5 7 11 12 12 4 5 3 3 3 3 1 5 9 7 6 6 9 4 4 6 19 15 11 6 11 10 9 12 16
15 16 17 21 24 23 23 5 5 3 2 8 5 5 2 1 5 6 7 9 4 2 7 6 5 10 23 16 6 5 6 9 19 10 10 17 18 21 19 10 13 16 18 19 19
15 16 16 19 25 13 9 4 4 2 7 10 14 9 10 8 4 5 11 7 6 8 5 2 12 19 5 10 11 12 15 16 16 12 10 14 21 18 10 14 15 16 18 22 17
15 15 14 18 19 8 8 4 6 1 3 8 9 7 6 15 9 8 15 5 6 6 9 18 11 17 12 9 8 20 15 19 18 10 6 8 11 13 11 10 14 17 18 20 18
16 14 13 16 2 14 2 10 5 1 3 6 4 2 3 4 4 2 11 6 5 13 8 11 11 11 6 7 12 23 10 15 10 3 12 4 14 8 7 12 10 15 18 15 12
18 14 11 9 10 6 6 12 4 3 6 4 2 3 1 6 3 3 2 2 5 4 6 10 3 8 13 24 9 18 3 4 1 4 5 6 6 3 8 8 11 16 18 17 12
16 16 12 6 7 6 8 6 2 4 8 4 3 3 3 2 2 3 3 3 1 2 6 11 1 4 7 2 5 2 1 1 2 2 12 8 9 6 7 9 6 10 12 15 12
15 12 20 12 3 4 5 4 3 5 4 4 4 4 2 5 4 6 4 4 6 1 5 3 12 4 5 3 2 3 4 4 4 1 13 12 11 23 5 7 11 13 13 15 7
16 12 14 21 20 10 9 3 6 5 9 1 4 2 7 8 7 7 4 4 7 2 2 4 14 12 8 14 11 8 9 6 7 10 19 4 8 6 10 11 11 13 15 6 8
12 10 8 17 21 17 3 3 8 6 6 6 10 10 4 5 7 7 8 7 10 18 11 7 13 2 4 2 8 5 6 8 1 2 3 9 12 7 7 10 11 14 3 8 9
6 5 7 14 26 15 2 12 8 6 3 3 11 7 12 12 1 1 5 4 6 15 18 6 8 8 4 1 3 5 2 1 1 3 7 17 6 14 15 22 19 7 9 8 6
3 3 4 23 24 2 7 9 8 6 5 8 14 18 17 14 9 7 5 16 4 6 6 6 8 16 5 7 10 1 4 5 2 5 13 15 14 6 2 6 7 7 6 8 9
3 4 19 33 4 3 10 6 7 11 7 10 4 10 10 9 12 14 17 18 8 4 2 2 4 4 11 7 6 5 7 9 9 10 4 7 15 20 8 5 7 5 4 1 5
3 3 19 8 8 9 4 5 5 11 9 5 7 10 11 12 9 12 11 12 17 10 7 4 2 4 8 13 3 6 7 7 6 3 11 13 14 27 24 26 23 9 10 10 12
3 3 3 3 4 11 15 13 13 9 15 14 13 11 14 17 18 11 15 13 12 13 15 10 9 12 17 16 8 8 7 9 15 11 22 21 32 27 32 31 27 21 26 21 15
3 4 3 4 10 14 15 13 22 18 12 9 7 21 23 20 25 29 26 27 20 10 11 12 10 18 26 27 30 29 26 26 21 21 19 28 25 24 31 29 26 25 23 19 8
2 2 4 5 7 6 11 16 20 22 12 19 17 23 17 15 20 24 22 18 18 4 19 11 17 18 21 27 31 31 32 33 34 33 26 32 32 33 30 31 31 35 30 20 18
4 2 1 5 1 2 10 14 10 8 4 3 11 13 12 14 14 18 19 20 20 14 11 10 7 11 26 20 23 24 32 37 30 25 24 28 35 36 35 31 32 31 29 19 21
Wind_Direction
8 8 9 9 8 8 10 8 7 5 3 3 2 356 337 314 278 272 239 235 200 211 158 137 165 192 235 256 194 62 48 260 262 299 252 194 153 317 143 161 206 208 187 223 165
356 354 356 355 354 353 355 356 356 357 354 352 353 350 339 326 293 249 254 234 210 187 162 175 191 190 284 232 186 122 154 235 222 288 284 202 182 182 181 238 238 225 37 154 159
346 343 343 342 342 344 344 344 344 345 345 342 344 342 335 330 324 248 261 212 223 196 173 192 229 167 203 171 208 200 212 219 278 285 31 282 255 201 184 236 211 214 196 174 170
338 337 336 333 330 330 331 332 334 335 336 335 336 332 326 339 287 231 211 196 201 191 176 171 191 155 227 224 210 226 244 247 275 237 187 251 294 264 206 239 208 225 194 178 185
329 331 328 326 323 319 319 320 323 323 325 327 328 324 301 221 246 235 197 185 192 185 188 180 171 196 232 248 312 231 258 265 268 272 230 218 249 248 261 264 254 254 186 187 202
329 330 329 322 317 315 312 311 312 311 313 318 320 309 203 232 233 228 199 186 190 189 203 189 197 189 251 242 207 247 256 264 260 255 232 200 259 157 257 231 247 240 246 205 204
341 340 345 333 324 315 309 306 307 307 306 309 308 250 231 239 229 209 201 204 200 199 207 215 189 174 299 292 304 290 315 308 262 245 222 125 281 224 249 252 259 249 240 225 217
328 333 341 345 338 328 315 306 304 300 300 301 281 180 241 213 210 210 196 199 201 217 221 179 187 200 206 291 338 246 207 286 273 130 210 128 260 248 248 195 239 242 245 240 233
320 328 339 349 347 338 323 319 303 289 290 285 172 185 262 173 205 216 203 177 170 174 185 150 146 192 70 120 340 265 240 216 294 200 141 171 257 269 260 203 246 242 238 240 251
314 321 333 345 345 340 329 320 301 300 149 151 283 358 251 225 171 181 190 179 156 132 103 152 148 178 222 127 226 213 226 244 240 196 160 195 248 261 268 266 250 267 249 242 242
310 315 327 336 342 341 344 356 10 16 215 199 189 224 122 101 160 190 177 166 119 144 187 208 147 205 228 201 227 250 252 236 268 260 205 241 238 255 256 258 249 256 261 260 253
308 312 323 331 340 355 357 36 54 312 307 268 252 236 231 183 233 218 166 165 167 208 165 244 218 221 213 205 225 247 257 263 275 270 196 249 254 253 242 245 243 239 252 258 256
302 307 318 329 336 359 353 38 330 355 250 279 223 211 215 176 221 210 158 180 194 196 204 222 219 218 225 235 261 250 248 259 256 294 232 281 266 248 245 253 252 253 247 258 257
295 298 309 329 356 339 342 346 352 73 290 266 231 236 40 139 272 353 186 178 220 225 203 247 234 221 193 210 195 262 218 258 267 257 271 134 290 218 231 239 237 246 255 251 241
284 288 293 310 311 323 322 328 323 111 299 259 224 1 19 162 120 359 6 16 210 204 144 234 218 201 225 234 194 261 182 237 247 239 317 176 285 201 197 242 247 245 249 257 243
284 269 265 272 258 263 324 330 296 54 253 273 127 156 118 329 45 38 32 21 315 316 256 247 158 214 212 170 193 110 204 198 40 84 263 189 209 184 195 213 235 246 248 250 256
273 274 241 221 233 171 64 23 311 199 299 210 234 160 146 194 222 174 167 182 184 242 242 290 226 170 147 176 286 171 78 301 315 24 260 184 221 252 275 216 214 231 239 238 181
284 258 258 237 217 191 85 76 201 209 227 261 78 120 192 165 230 189 171 238 241 244 315 252 284 158 187 200 189 184 176 173 225 259 277 157 251 256 224 232 232 223 229 223 177
316 276 220 231 209 192 120 177 225 177 245 360 342 318 256 260 222 158 202 206 206 189 201 208 262 308 192 176 151 169 181 219 334 64 1 257 274 294 256 281 271 247 168 223 203
323 252 211 232 197 149 193 235 228 197 31 350 270 198 265 262 254 261 198 214 225 189 217 234 263 195 146 143 328 170 146 110 278 208 242 273 274 271 286 278 272 240 210 206 203
249 262 222 193 151 170 220 226 249 208 201 221 244 252 245 265 249 238 237 303 323 344 244 295 243 258 123 194 183 150 248 234 215 181 243 258 271 152 97 316 290 260 225 197 212
226 239 164 156 186 236 226 221 220 242 211 250 253 254 252 273 263 252 244 224 238 126 350 310 294 292 252 289 201 168 213 215 238 259 237 272 265 276 294 334 288 110 270 290 217
242 218 180 192 223 231 208 246 275 263 225 224 224 235 240 247 256 229 241 249 258 224 164 166 202 273 289 284 231 210 197 211 242 227 244 264 266 275 277 280 274 236 259 263 271
288 240 194 221 228 237 253 235 245 232 261 244 260 263 257 258 253 263 255 248 229 245 190 175 198 202 232 238 271 264 257 255 249 254 259 247 256 263 270 262 269 272 266 268 259
250 256 229 216 231 237 246 264 262 265 233 248 225 232 248 260 258 261 250 260 257 203 164 176 231 220 230 236 252 261 254 252 250 249 246 257 257 253 258 274 273 277 272 271 246
273 316 356 317 322 288 232 242 260 267 262 273 274 284 300 288 284 285 290 259 239 226 221 207 247 227 234 227 226 237 246 249 252 248 250 254 258 256 261 265 271 270 271 286 277
271 51 272 276 281 293 260 264 283 327 277 354 347 326 308 303 315 302 288 284 284 289 291 247 248 226 249 227 232 239 236 240 247 250 241 247 246 250 259 260 259 274 283 280 270